Location: ROME
(41.8531°N, 12.6782°E)
Time: 17:39:41
(UTC+01:00)

ISS - Visible Passes

Search period start: 01 March 2021 00:00
Search period end: 11 March 2021 00:00
Orbit: 417 x 421 km, 51.6° (Epoch: 01 March)

Date Brightness Start Highest point End Pass type
(mag) Time Alt. Az. Time Alt. Az. Time Alt. Az.
01 Mar -1.6 04:53:50 19° N 04:53:50 19° N 04:55:53 10° NE visible
02 Mar -0.5 04:08:11 12° NNE 04:08:11 12° NNE 04:08:30 10° NE visible
02 Mar -1.4 05:41:19 10° NW 05:43:25 15° N 05:45:30 10° NE visible
03 Mar -1.4 04:55:27 15° N 04:55:41 16° N 04:57:50 10° NE visible
04 Mar -0.6 04:09:47 12° NNE 04:09:47 12° NNE 04:10:16 10° NE visible
04 Mar -1.5 05:43:20 10° NW 05:45:45 18° NNE 05:48:10 10° ENE visible
05 Mar -1.4 04:57:04 15° NNW 04:58:03 16° N 05:00:15 10° NE visible
06 Mar -0.8 04:11:26 14° NNE 04:11:26 14° NNE 04:12:26 10° NE visible
06 Mar -2.0 05:45:02 10° NW 05:47:58 27° NNE 05:50:54 10° E visible
07 Mar -1.6 04:58:47 16° NNW 05:00:20 21° NNE 05:03:00 10° ENE visible
08 Mar -1.1 04:13:14 17° NNE 04:13:14 17° NNE 04:15:04 10° ENE visible
08 Mar -3.2 05:46:41 10° NW 05:50:00 56° NNE 05:53:19 10° ESE visible
09 Mar -2.5 05:00:42 21° NNW 05:02:27 37° NNE 05:05:36 10° E visible
10 Mar -1.7 04:15:19 26° NE 04:15:19 26° NE 04:17:46 10° E visible
10 Mar -3.5 05:48:31 10° WNW 05:51:49 52° SW 05:55:04 10° SE visible
